User: anonymous   Login
Location: Turtle Rock Observatory
(36.6913°N, 81.9708°W)
Time: 11:52:50
(UTC-05:00)
Language:

Lacrosse 5 rocket - Orbit

View from above orbital plane
View from above orbital plane
View from above satellite
View from above satellite

Ground track
Ground track

The orbit data is extracted from the following two-line orbital elements,

1 28647U 05016B   17055.17165302 0.00000620  00000-0  35874-4 0    04
2 28647  56.9980 114.3310 0130421 120.1214 239.8786 15.04811143    02
Epoch (UTC): 24 February 2017 04:07:10
Eccentricity: 0.0130421
inclination: 56.9980°
perigee height: 462 km
apogee height: 642 km
right ascension of ascending node: 114.3310°
argument of perigee: 120.1214°
revolutions per day: 15.04811143
mean anomaly at epoch: 239.8786°
orbit number at epoch: 0

The dashed part of the orbit path shows where the satellite is in the earth's shadow,  

DLR